"Pseudo-MPEC" for X82582

Created 2024 Sep 7 7:22:25 UT using Find_Orb

Click here for an explanation of pseudo-MPECs

 
 Astrometry: 
     X82582 * C2024 08 17.61700 16 26 54.20 +43 03 25.9    ~8I7M 20.2 RVNEOCPD29
     X82582   C2024 08 17.62744 16 26 53.91 +43 03 13.3    ~8I7M 19.6 RVNEOCPD29
     X82582   C2024 08 17.63787 16 26 53.53 +43 03 00.2    ~8I7M 20.0 RVNEOCPD29

Station data:
(D29) Purple Mountain Observatory, XuYi Station  (N32.734363 E118.463900)
   China.  Observers H. B. Zhao, B. Li, G. Zhaori, R. Q. Hong, L. F. Hu.
   Measurers H. B. Zhao, B. Li. H. Lu, G. Zhaori. 1.04-m f/1.8 Schmidt + CCD.

Orbital elements:  X82582
   Perihelion 2024 May 1.18980 +/- 205 TT =  4:33:18 (JD 2460431.68980)
Epoch 2024 Aug 18.0 TT = JDT 2460540.5   Earth MOID: 0.1358   Ve: 0.0982
M  18.61912554 +/- 90               Ma: 0.0055                   AutoNEOCP
n   0.17111561 +/- 0.312            Peri.  291.08817 +/- 57
a   3.21323839 +/- 3.9              Node   295.57103 +/- 80
e   0.8088354 +/- 0.251             Incl.   95.84074 +/- 30
P   5.75989                H 16.66  G  0.15   U 12.0  SR
q 0.61425724 +/- 0.872    Q 5.81221954 +/- 21.4           (J2000 ecliptic)
From 3 observations 2024 Aug. 17 (30.1 min); mean residual 0".19
Residuals in arcseconds: 
240817 D29  .17-  .09-    240817 D29  .34+  .17+    240817 D29  .17-  .08-    

Ephemerides (geocentric):
Date (UTC) HH   RA             Dec           delta  r     elong  mag " sig PA
---- --------  ------------   ------------  ------ ------ -----  --- --------
2024 09 07 07  16 26 40.221   +37 21 35.98  1.9974 2.0576  79.0 21.0 672' 166
2024 09 07 08  16 26 41.130   +37 21 02.75  1.9983 2.0581  78.9 21.0 678' 166
2024 09 07 09  16 26 42.042   +37 20 29.54  1.9991 2.0585  78.9 21.0 684' 165
2024 09 07 10  16 26 42.957   +37 19 56.37  2.0000 2.0590  78.9 21.0 690' 165
2024 09 07 11  16 26 43.875   +37 19 23.22  2.0008 2.0594  78.9 21.0 697' 165
2024 09 07 12  16 26 44.796   +37 18 50.10  2.0017 2.0599  78.9 21.0 703' 164
2024 09 07 13  16 26 45.719   +37 18 17.01  2.0026 2.0603  78.8 21.0 709' 164
2024 09 07 14  16 26 46.645   +37 17 43.94  2.0034 2.0608  78.8 21.0 715' 163
2024 09 07 15  16 26 47.574   +37 17 10.91  2.0043 2.0612  78.8 21.0 721' 163
2024 09 07 16  16 26 48.506   +37 16 37.91  2.0051 2.0617  78.8 21.0 727' 162
2024 09 07 17  16 26 49.441   +37 16 04.93  2.0060 2.0621  78.8 21.0 734' 162
2024 09 07 18  16 26 50.378   +37 15 31.98  2.0068 2.0626  78.8 21.0 740' 161
2024 09 07 19  16 26 51.318   +37 14 59.07  2.0077 2.0630  78.7 21.0 746' 161
2024 09 07 20  16 26 52.261   +37 14 26.18  2.0085 2.0635  78.7 21.0 753' 160
2024 09 07 21  16 26 53.206   +37 13 53.31  2.0094 2.0639  78.7 21.0 759' 159
2024 09 07 22  16 26 54.154   +37 13 20.48  2.0102 2.0644  78.7 21.0 766' 159
2024 09 07 23  16 26 55.105   +37 12 47.68  2.0111 2.0648  78.7 21.0 773' 158
2024 09 08 00  16 26 56.059   +37 12 14.90  2.0119 2.0653  78.7 21.0 780' 157
2024 09 08 01  16 26 57.016   +37 11 42.16  2.0128 2.0657  78.6 21.0 787' 157
2024 09 08 02  16 26 57.975   +37 11 09.44  2.0137 2.0662  78.6 21.0 794' 156
2024 09 08 03  16 26 58.937   +37 10 36.75  2.0145 2.0666  78.6 21.0 802' 155
2024 09 08 04  16 26 59.901   +37 10 04.09  2.0154 2.0671  78.6 21.0 809' 154
2024 09 08 05  16 27 00.869   +37 09 31.46  2.0162 2.0675  78.6 21.0 817' 153
2024 09 08 06  16 27 01.839   +37 08 58.85  2.0171 2.0680  78.5 21.0 825' 153
2024 09 08 07  16 27 02.812   +37 08 26.28  2.0179 2.0684  78.5 21.0 833' 152
2024 09 08 08  16 27 03.787   +37 07 53.73  2.0188 2.0689  78.5 21.0 841' 151
2024 09 08 09  16 27 04.765   +37 07 21.21  2.0196 2.0693  78.5 21.0 849' 150
2024 09 08 10  16 27 05.746   +37 06 48.72  2.0205 2.0698  78.5 21.0 857' 149
2024 09 08 11  16 27 06.730   +37 06 16.26  2.0213 2.0702  78.5 21.0 865' 148
2024 09 08 12  16 27 07.716   +37 05 43.83  2.0222 2.0707  78.4 21.0 873' 148
2024 09 08 13  16 27 08.705   +37 05 11.42  2.0230 2.0711  78.4 21.0 880' 147
2024 09 08 14  16 27 09.697   +37 04 39.05  2.0239 2.0716  78.4 21.0 888' 146
2024 09 08 15  16 27 10.691   +37 04 06.70  2.0247 2.0720  78.4 21.0 896' 146
2024 09 08 16  16 27 11.688   +37 03 34.38  2.0256 2.0725  78.4 21.0 903' 145
2024 09 08 17  16 27 12.688   +37 03 02.09  2.0264 2.0729  78.4 21.0 910' 144
2024 09 08 18  16 27 13.690   +37 02 29.83  2.0273 2.0734  78.3 21.0 917' 144
2024 09 08 19  16 27 14.695   +37 01 57.59  2.0281 2.0738  78.3 21.0 923' 143
2024 09 08 20  16 27 15.703   +37 01 25.39  2.0290 2.0743  78.3 21.0 930' 143
2024 09 08 21  16 27 16.713   +37 00 53.21  2.0298 2.0747  78.3 21.0 936' 142
2024 09 08 22  16 27 17.726   +37 00 21.06  2.0307 2.0752  78.3 21.0 941' 142
2024 09 08 23  16 27 18.741   +36 59 48.94  2.0315 2.0756  78.3 21.0 947' 141
2024 09 09 00  16 27 19.759   +36 59 16.84  2.0324 2.0761  78.2 21.0 952' 141
2024 09 09 01  16 27 20.780   +36 58 44.78  2.0332 2.0765  78.2 21.0 957' 140
2024 09 09 02  16 27 21.804   +36 58 12.74  2.0341 2.0770  78.2 21.0 962' 140
2024 09 09 03  16 27 22.830   +36 57 40.73  2.0349 2.0774  78.2 21.0 966' 139
2024 09 09 04  16 27 23.859   +36 57 08.75  2.0358 2.0779  78.2 21.0 970' 139
2024 09 09 05  16 27 24.890   +36 56 36.80  2.0366 2.0783  78.1 21.0 975' 139
2024 09 09 06  16 27 25.924   +36 56 04.87  2.0375 2.0788  78.1 21.0 978' 139